EW5739 Weather Reports


time (UTC)temp
F
wind
direction
speed
knots
gust
knots
rain 1hr
in
rain 24hr
in
rain mn
in
humidity
%
barometer
mb
20260508070712 43 266 0.0 0.0 0.00 0.00 0.00 64 1005.4
20260508070216 43 270 0.0 0.0 0.00 0.00 0.00 64 1005.4
20260508070212 43 270 0.0 0.0 0.00 0.00 0.00 64 1005.4
20260508065816 43 279 0.0 0.0 0.00 0.00 0.00 64 1005.4
20260508064711 43 282 0.0 0.0 0.00 0.00 0.00 64 1005.4
20260508064210 43 277 0.0 0.0 0.00 0.00 0.00 64 1005.4
20260508063714 43 270 0.0 0.0 0.00 0.00 0.00 63 1005.5
20260508063710 43 280 0.0 0.0 0.00 0.00 0.00 63 1005.4
20260508062714 43 264 0.0 0.0 0.00 0.00 0.00 63 1005.6
20260508062710 43 269 0.0 0.0 0.00 0.00 0.00 63 1005.5
20260508061710 43 255 0.0 0.0 0.00 0.00 0.00 63 1005.5
20260508061214 43 276 0.0 0.0 0.00 0.00 0.00 63 1005.5
20260508061210 44 278 0.0 0.0 0.00 0.00 0.00 62 1005.5
20260508060707 43 276 0.0 0.0 0.00 0.00 0.00 63 1005.5
20260508055706 43 278 0.0 0.0 0.00 0.00 0.00 63 1005.7
20260508055206 43 280 0.0 0.0 0.00 0.00 0.00 63 1005.8
20260508054706 43 280 0.0 0.0 0.00 0.00 0.00 63 1006.0
20260508054206 44 278 0.0 0.0 0.00 0.00 0.00 63 1006.1
20260508053712 44 276 0.0 0.0 0.00 0.00 0.00 63 1006.1
20260508053706 44 278 0.0 0.0 0.00 0.00 0.00 63 1006.1
20260508053205 43 269 0.0 0.0 0.00 0.00 0.00 63 1006.1
20260508052706 43 276 0.0 0.0 0.00 0.00 0.00 63 1006.1
20260508051710 44 252 0.0 0.0 0.00 0.00 0.00 61 1006.2
20260508051706 44 269 0.0 0.0 0.00 0.00 0.00 62 1006.1
20260508050708 44 269 0.0 0.0 0.00 0.00 0.00 61 1006.3
20260508050704 44 259 0.0 0.0 0.00 0.00 0.00 61 1006.3
20260508045704 44 269 0.0 0.0 0.00 0.00 0.00 62 1006.4
20260508045204 44 266 0.0 0.0 0.00 0.00 0.00 64 1006.3
20260508044708 44 264 0.0 0.0 0.00 0.00 0.00 61 1006.4
20260508044704 44 273 0.0 0.0 0.00 0.00 0.00 61 1006.4
20260508043704 44 271 0.0 0.0 0.00 0.00 0.00 61 1006.4
20260508043204 43 269 0.0 0.0 0.00 0.00 0.00 63 1006.5
20260508042704 42 349 0.0 0.0 0.00 0.00 0.00 65 1006.6
20260508042208 44 261 0.0 0.0 0.00 0.00 0.00 64 1006.5
20260508042202 42 261 0.0 0.0 0.00 0.00 0.00 68 1006.6
20260508041702 43 261 0.0 0.0 0.00 0.00 0.00 69 1006.6
20260508040702 45 261 0.0 0.0 0.00 0.00 0.00 57 1006.4
20260508040202 45 261 0.0 0.0 0.00 0.00 0.00 57 1006.4
20260508035700 45 270 0.0 0.0 0.00 0.00 0.31 57 1006.4
20260508035200 45 281 0.0 0.0 0.00 0.00 0.31 57 1006.5
20260508034700 45 314 0.0 0.0 0.00 0.00 0.31 57 1006.4
20260508034200 45 21 0.0 0.0 0.00 0.00 0.31 58 1006.6
20260508033700 45 21 0.0 0.0 0.00 0.00 0.31 57 1006.6
20260508033204 46 270 0.0 0.0 0.00 0.00 0.31 59 1006.6
20260508033200 45 270 0.0 0.0 0.00 0.00 0.31 57 1006.6
20260508032201 46 270 0.0 0.0 0.00 0.00 0.31 56 1006.6
20260508031700 47 270 0.0 0.0 0.00 0.00 0.31 55 1006.7
20260508031158 47 264 0.0 0.0 0.00 0.00 0.31 55 1006.6
20260508030656 47 264 0.0 0.0 0.00 0.00 0.31 54 1006.6
20260508030154 47 264 0.0 1.7 0.00 0.00 0.31 55 1006.6
20260508025654 47 281 0.0 1.7 0.00 0.00 0.31 55 1006.6
20260508025154 47 264 0.0 0.9 0.00 0.00 0.31 55 1006.6
20260508024654 47 269 0.0 0.9 0.00 0.00 0.31 56 1006.5
20260508024152 47 269 0.0 0.9 0.00 0.00 0.31 57 1006.4
20260508023652 47 256 0.0 0.0 0.00 0.00 0.31 56 1006.4
20260508023154 48 256 0.0 0.9 0.00 0.00 0.31 54 1006.3
20260508023150 47 256 0.0 0.9 0.00 0.00 0.31 56 1006.3
20260508022150 48 255 0.0 0.9 0.00 0.00 0.31 54 1006.2
20260508021650 48 255 0.0 1.7 0.00 0.00 0.31 53 1006.2
20260508021151 49 255 0.0 1.7 0.00 0.00 0.31 54 1006.1
20260508020650 49 272 0.0 1.7 0.00 0.00 0.31 54 1006.1
20260508020150 49 234 0.0 2.6 0.00 0.00 0.31 54 1006.2
20260508015648 49 325 0.9 2.6 0.00 0.00 0.31 54 1006.1
20260508015148 49 328 0.0 2.6 0.00 0.00 0.31 54 1006.1
20260508014648 49 302 0.0 2.6 0.00 0.00 0.31 53 1006.1
20260508014148 50 292 0.0 1.7 0.00 0.00 0.31 52 1006.0
20260508013648 50 354 0.0 1.7 0.00 0.00 0.31 52 1005.9
20260508013148 50 31 0.0 0.9 0.00 0.00 0.31 51 1005.9
20260508012652 51 4 0.0 2.6 0.00 0.00 0.31 50 1005.9
20260508012648 51 31 0.0 0.9 0.00 0.00 0.31 51 1005.9
20260508011652 51 358 0.9 2.6 0.00 0.00 0.31 49 1005.7
20260508011648 51 7 0.0 2.6 0.00 0.00 0.31 50 1005.8
20260508010646 52 249 0.9 3.5 0.00 0.00 0.31 49 1005.7
20260508010146 52 316 0.9 3.5 0.00 0.00 0.31 49 1005.6
20260508005647 52 257 0.9 2.6 0.00 0.00 0.31 49 1005.5
20260508005146 52 309 0.9 4.3 0.00 0.00 0.31 49 1005.4
20260508004646 52 278 0.9 4.3 0.00 0.00 0.31 49 1005.3
20260508004146 53 269 0.0 2.6 0.00 0.00 0.31 49 1005.2
20260508003646 53 263 0.9 2.6 0.00 0.00 0.31 48 1005.0
20260508003146 53 277 0.9 3.5 0.00 0.00 0.31 47 1005.0
20260508002646 53 327 0.0 3.5 0.00 0.00 0.31 47 1004.9
20260508002146 53 323 0.9 3.5 0.00 0.00 0.31 46 1004.9
20260508001650 54 293 0.9 4.3 0.00 0.00 0.31 45 1004.7
20260508001645 54 302 0.9 4.3 0.00 0.00 0.31 45 1004.8
20260508000646 54 271 0.0 2.6 0.00 0.00 0.31 45 1004.7
20260508000146 55 285 0.0 2.6 0.00 0.00 0.31 44 1004.6
20260507235646 55 270 0.9 2.6 0.00 0.00 0.31 43 1004.6
20260507235146 55 305 1.7 3.5 0.00 0.00 0.31 43 1004.5
20260507234646 56 254 1.7 4.3 0.00 0.00 0.31 43 1004.5
20260507234150 56 279 0.9 5.2 0.00 0.00 0.31 44 1004.3
20260507234146 56 276 0.9 4.3 0.00 0.00 0.31 43 1004.4
20260507233144 56 288 0.9 5.2 0.00 0.00 0.31 43 1004.2
20260507232649 57 311 0.9 3.5 0.00 0.00 0.31 43 1004.0
20260507232644 56 290 0.9 5.2 0.00 0.00 0.31 43 1004.2
20260507232143 57 330 0.9 5.2 0.00 0.00 0.31 45 1004.1
20260507231143 57 277 0.9 3.5 0.00 0.00 0.31 44 1003.9
20260507230644 57 278 0.9 3.5 0.00 0.00 0.31 44 1003.7
20260507230144 57 274 0.0 2.6 0.00 0.00 0.31 44 1003.7
20260507225644 57 219 0.0 1.7 0.00 0.00 0.31 42 1003.7
20260507225144 57 263 0.9 3.5 0.00 0.00 0.31 43 1003.6
20260507224644 57 288 0.9 3.5 0.00 0.00 0.31 43 1003.5
20260507224142 57 269 0.9 3.5 0.00 0.00 0.31 45 1003.5
20260507223642 58 308 0.9 3.5 0.00 0.00 0.31 44 1003.4
20260507223143 58 278 0.0 0.9 0.00 0.00 0.31 43 1003.3
20260507223139 58 276 0.0 2.6 0.00 0.00 0.31 43 1003.4
20260507222744 59 264 0.9 2.6 0.00 0.00 0.31 43 1003.2
20260507222139 58 265 0.0 2.6 0.00 0.00 0.31 45 1003.3
20260507221745 59 292 0.9 2.6 0.00 0.00 0.31 42 1003.2
20260507220640 59 278 0.9 4.3 0.00 0.00 0.31 42 1003.2
20260507220145 61 286 0.9 3.5 0.00 0.00 0.31 42 1003.0
20260507220141 60 262 0.9 4.3 0.00 0.00 0.31 41 1003.1
20260507215138 61 300 0.9 3.5 0.00 0.00 0.31 41 1003.1
20260507214641 61 251 1.7 5.2 0.00 0.00 0.31 41 1003.1
20260507214637 60 252 0.9 4.3 0.00 0.00 0.31 41 1003.1
20260507213635 61 264 1.7 5.2 0.00 0.00 0.31 42 1003.0
20260507213135 62 285 1.7 5.2 0.00 0.00 0.31 39 1003.0
20260507212636 62 294 1.7 5.2 0.00 0.00 0.31 39 1002.9
20260507212136 62 273 1.7 5.2 0.00 0.00 0.31 39 1002.9
20260507211640 63 240 0.9 3.5 0.00 0.00 0.31 39 1002.6
20260507211636 63 304 1.7 7.0 0.00 0.00 0.31 40 1002.8
20260507211135 63 304 1.7 7.0 0.00 0.00 0.31 37 1002.8
20260507210138 62 286 0.0 1.7 0.00 0.00 0.31 40 1002.7
20260507210134 63 295 0.9 2.6 0.00 0.00 0.31 39 1002.7
20260507205134 63 207 0.9 5.2 0.00 0.00 0.31 43 1002.6
20260507204637 62 247 0.9 3.5 0.00 0.00 0.31 45 1002.5
20260507204633 62 34 1.7 5.2 0.00 0.00 0.31 42 1002.5
20260507203633 62 285 0.9 7.0 0.00 0.00 0.31 45 1002.4
20260507203133 63 269 1.7 7.0 0.00 0.00 0.31 45 1002.4
20260507202634 63 308 1.7 7.0 0.00 0.00 0.31 46 1002.4
20260507202137 64 278 0.9 6.1 0.00 0.00 0.31 49 1002.4
20260507202133 64 323 1.7 6.1 0.00 0.00 0.31 48 1002.4
20260507201134 64 259 0.9 5.2 0.00 0.00 0.31 50 1002.4
20260507200632 63 282 0.9 5.2 0.00 0.00 0.31 53 1002.5
20260507200132 62 284 1.7 3.5 0.00 0.00 0.31 55 1002.4
20260507195629 62 254 1.7 5.2 0.00 0.00 0.31 52 1002.5
20260507195129 63 193 0.9 5.2 0.00 0.00 0.31 54 1002.5
20260507194630 63 283 0.9 4.3 0.00 0.00 0.31 56 1002.6
20260507194127 64 243 0.0 4.3 0.00 0.00 0.31 56 1002.5
20260507193628 64 222 0.0 0.0 0.00 0.00 0.31 55 1002.6
20260507193134 63 235 0.0 0.0 0.00 0.00 0.31 56 1002.7
20260507193128 63 86 0.0 0.0 0.00 0.00 0.31 56 1002.6
20260507192628 63 136 0.0 0.0 0.00 0.00 0.31 57 1002.8
20260507191627 62 157 0.0 0.0 0.00 0.00 0.31 59 1002.7
20260507191132 62 264 0.9 3.5 0.00 0.00 0.31 58 1002.8
20260507191128 61 199 0.0 0.0 0.00 0.00 0.31 60 1002.8
20260507190127 62 231 0.9 3.5 0.00 0.00 0.31 57 1002.8
20260507185627 64 236 0.9 2.6 0.00 0.00 0.31 56 1002.9
20260507185127 63 230 0.0 2.6 0.00 0.00 0.31 56 1003.0
20260507184627 63 62 0.0 1.7 0.00 0.00 0.31 61 1002.9
20260507184127 62 238 0.9 3.5 0.00 0.00 0.31 60 1002.9
20260507183628 63 230 0.9 3.5 0.00 0.00 0.31 59 1003.0
20260507183129 62 245 0.0 0.0 0.00 0.00 0.31 62 1003.2
20260507183125 62 257 0.0 2.6 0.00 0.00 0.31 59 1003.1
20260507182133 61 264 0.0 0.0 0.00 0.00 0.31 62 1003.4
20260507182126 62 141 0.0 0.0 0.00 0.00 0.31 60 1003.2
20260507181626 62 267 0.0 0.0 0.00 0.00 0.31 63 1003.3
20260507181126 61 130 0.0 0.0 0.00 0.00 0.31 63 1003.4
20260507180124 62 211 0.0 0.0 0.00 0.00 0.31 62 1003.4
20260507175627 61 60 0.0 0.0 0.00 0.00 0.31 65 1003.4
20260507175623 62 224 0.0 0.0 0.00 0.00 0.31 62 1003.3
20260507174621 61 271 0.0 0.0 0.00 0.00 0.31 64 1003.6
20260507174118 62 252 0.0 0.0 0.00 0.00 0.31 62 1003.5
20260507173609 62 216 0.0 0.0 0.00 0.00 0.31 60 1003.4
20260507173101 62 158 0.0 0.0 0.00 0.00 0.31 62 1003.4
20260507173054 62 90 0.0 0.0 0.00 0.00 0.31 58 1003.4
20260507172657 63 94 0.0 0.0 0.00 0.00 0.31 55 1003.4
20260507171556 64 293 0.0 0.0 0.00 0.00 0.31 57 1003.4
20260507171054 64 237 0.0 0.0 0.00 0.00 0.31 56 1003.6
20260507170541 64 146 0.0 1.7 0.00 0.00 0.31 55 1003.5
20260507170056 64 109 0.0 1.7 0.00 0.00 0.31 55 1003.5
20260507165542 63 237 0.0 0.0 0.00 0.00 0.31 58 1003.6
20260507165047 63 298 0.0 1.7 0.00 0.00 0.31 55 1003.7
20260507165043 62 277 0.0 0.0 0.00 0.00 0.31 56 1003.6
20260507164041 62 245 0.9 3.5 0.00 0.00 0.31 57 1003.7
20260507163539 62 238 0.9 3.5 0.00 0.00 0.31 56 1003.7
20260507163041 62 15 0.9 2.6 0.00 0.00 0.31 56 1003.7
20260507162538 62 158 0.9 1.7 0.00 0.00 0.31 54 1003.9
20260507162043 62 302 0.9 3.5 0.00 0.00 0.31 61 1003.8
20260507161540 62 233 0.0 3.5 0.00 0.00 0.31 62 1004.0
20260507161041 62 315 0.0 0.0 0.00 0.00 0.31 59 1004.0
20260507160537 62 233 0.0 0.0 0.00 0.00 0.31 59 1004.1
20260507160053 62 311 0.0 0.0 0.00 0.00 0.31 61 1004.3
20260507155535 62 243 0.0 0.0 0.00 0.00 0.31 63 1004.3
20260507155040 61 4 0.0 0.0 0.00 0.00 0.31 63 1004.4
20260507153716 59 249 0.0 0.0 0.00 0.00 0.31 63 1004.5
20260507153213 59 268 0.0 0.0 0.00 0.00 0.31 66 1004.5
20260507152716 59 284 0.0 0.0 0.00 0.00 0.31 64 1004.5
20260507152212 60 257 0.0 0.0 0.00 0.00 0.31 66 1004.5
20260507151715 60 264 0.0 0.0 0.00 0.00 0.31 68 1004.6
20260507151357 59 28 0.0 0.0 0.00 0.85 0.31 67 1004.6
20260507150856 58 311 0.0 0.0 0.00 0.85 0.31 70 1004.7
20260507150341 58 302 0.0 0.0 0.00 0.85 0.31 68 1004.7
20260507145815 59 340 0.0 0.0 0.00 0.85 0.31 65 1004.7
20260507145315 60 311 0.0 0.0 0.00 0.85 0.31 65 1004.7
20260507144811 59 20 0.0 0.0 0.00 0.85 0.31 68 1004.8
20260507144309 59 328 0.0 0.0 0.00 0.85 0.31 70 1004.9
20260507143807 58 300 0.0 0.0 0.00 0.85 0.31 69 1004.9
20260507143307 58 293 0.0 0.0 0.00 0.85 0.31 70 1004.9
20260507142812 57 262 0.0 0.0 0.00 0.85 0.31 71 1005.0
20260507142807 58 271 0.0 0.0 0.00 0.85 0.31 70 1005.0
20260507141752 57 249 0.0 0.0 0.00 0.85 0.31 71 1005.1
20260507141249 57 318 0.0 0.0 0.00 0.85 0.31 75 1005.2
20260507140749 56 13 0.0 0.0 0.00 0.85 0.31 75 1005.2
20260507140247 56 337 0.0 0.0 0.00 0.85 0.31 72 1005.2
20260507135747 55 32 0.0 0.0 0.00 0.85 0.31 75 1005.4
20260507135249 55 31 0.0 2.6 0.00 0.85 0.31 75 1005.3
20260507135245 55 33 0.0 0.0 0.00 0.85 0.31 74 1005.3
20260507134244 55 9 0.9 3.5 0.00 0.85 0.31 76 1005.3
20260507133745 55 284 0.9 3.5 0.00 0.85 0.31 79 1005.3
20260507133249 53 11 1.7 7.0 0.00 0.85 0.31 77 1005.5
20260507133244 54 319 1.7 7.0 0.00 0.85 0.31 76 1005.5
20260507132245 54 62 0.9 4.3 0.00 0.85 0.31 77 1005.4
20260507131749 53 259 0.9 3.5 0.00 0.85 0.31 81 1005.5
20260507131745 54 13 0.0 2.6 0.00 0.85 0.31 79 1005.4
20260507130744 53 23 1.7 5.2 0.00 0.85 0.31 81 1005.6
20260507130239 52 32 1.7 5.2 0.00 0.85 0.31 81 1005.7
20260507125742 52 262 0.9 5.2 0.00 0.85 0.31 84 1005.8
20260507125738 52 273 1.7 5.2 0.00 0.85 0.31 82 1005.8
20260507125342 52 251 1.7 5.2 0.00 0.85 0.31 80 1005.8
20260507124241 50 328 1.7 7.0 0.00 0.85 0.31 85 1005.5
20260507124237 51 262 0.9 6.1 0.00 0.85 0.31 85 1005.6
20260507123737 51 305 1.7 6.1 0.00 0.85 0.31 84 1005.6
20260507123235 51 276 1.7 6.1 0.00 0.85 0.31 85 1005.6
20260507122734 50 296 1.7 6.1 0.00 0.85 0.31 86 1005.6
20260507121732 49 309 1.7 7.0 0.00 0.85 0.31 87 1005.7
20260507121233 49 294 0.0 5.2 0.00 0.85 0.31 88 1005.7
20260507120733 49 303 0.0 0.0 0.00 0.85 0.31 90 1005.6
20260507120226 48 282 0.0 0.0 0.00 0.85 0.31 90 1005.6
20260507120208 47 260 0.0 0.0 0.00 0.85 0.31 92 1005.6
20260507115812 47 280 0.0 0.0 0.00 0.85 0.31 92 1005.5
20260507114707 47 260 0.0 0.0 0.00 0.85 0.31 92 1005.6
20260507114204 47 269 0.0 0.0 0.00 0.85 0.31 92 1005.7
20260507114200 47 311 0.0 0.0 0.00 0.85 0.31 93 1005.8
20260507113148 47 278 0.0 0.0 0.00 0.85 0.31 94 1005.7
20260507112642 46 280 0.0 0.0 0.00 0.85 0.31 94 1005.7
20260507112127 46 265 0.0 0.0 0.00 0.85 0.31 95 1006.0
20260507112112 46 258 0.0 0.0 0.00 0.85 0.31 96 1006.1
20260507111110 46 337 0.0 0.0 0.00 0.85 0.31 96 1005.9
20260507110610 46 319 0.0 0.0 0.00 0.85 0.31 97 1005.7
20260507110115 46 255 0.0 0.0 0.00 0.85 0.31 97 1006.7
20260507110111 46 255 0.0 0.0 0.00 0.85 0.31 97 1006.3
20260507105714 46 329 0.0 0.0 0.00 0.85 0.31 97 1006.0
20260507104610 46 262 0.0 0.0 0.00 0.85 0.31 98 1005.8
20260507104115 45 300 0.0 0.0 0.00 0.85 0.31 99 1005.7
20260507104111 46 257 0.0 0.0 0.00 0.85 0.31 98 1006.3
20260507103606 45 257 0.0 0.0 0.00 0.85 0.31 98 1006.1
20260507103211 45 27 0.0 0.0 0.00 0.85 0.31 99 1006.0
20260507102711 45 262 0.0 0.0 0.00 0.85 0.31 99 1005.8
20260507101605 45 261 0.0 0.0 0.00 0.85 0.31 99 1005.9
20260507101107 45 261 0.0 0.0 0.00 0.85 0.31 99 1006.0
20260507101103 45 261 0.0 0.0 0.00 0.85 0.31 99 1005.6
20260507100707 45 262 0.0 0.0 0.00 0.85 0.31 99 1005.2
20260507100207 45 262 0.0 0.0 0.00 0.85 0.31 99 1005.1
20260507095102 45 262 0.0 0.0 0.00 0.85 0.31 99 1005.5
20260507094602 45 262 0.0 0.0 0.00 0.85 0.31 98 1005.7
20260507094102 45 260 0.0 0.0 0.00 0.85 0.31 98 1005.3
20260507093602 45 264 0.0 0.0 0.00 0.85 0.31 98 1005.1
20260507093102 45 297 0.0 0.0 0.00 0.85 0.31 98 1004.8
20260507092602 45 271 0.0 0.0 0.00 0.85 0.31 99 1005.2
20260507092207 46 274 0.0 0.0 0.00 0.85 0.31 99 1005.3
20260507092107 45 276 0.0 0.0 0.00 0.85 0.31 99 1005.3
20260507092103 45 265 0.0 0.0 0.00 0.85 0.31 99 1005.6
20260507091102 46 262 0.0 0.0 0.00 0.85 0.31 99 1005.5
20260507090708 46 304 0.0 0.0 0.00 0.85 0.31 99 1005.4
20260507085607 46 262 0.0 0.0 0.00 0.85 0.31 99 1005.2
20260507085602 46 276 0.0 0.0 0.00 0.85 0.31 99 1005.5
20260507084603 46 297 0.0 0.0 0.00 0.85 0.31 99 1005.2
20260507084102 46 250 0.0 0.0 0.00 0.85 0.31 99 1005.0
20260507083600 46 316 0.0 0.0 0.00 0.85 0.31 99 1004.9
20260507083100 47 265 0.0 0.0 0.00 0.85 0.31 99 1005.3
20260507082600 47 280 0.0 0.0 0.00 0.85 0.31 99 1005.4
20260507082059 47 278 0.0 0.0 0.00 0.85 0.31 99 1005.2
20260507081554 47 271 0.0 0.0 0.00 0.85 0.31 99 1005.3
20260507081053 47 295 0.0 0.0 0.00 0.85 0.31 99 1004.8
20260507080552 47 276 0.0 0.0 0.00 0.85 0.31 99 1005.0
20260507080052 47 250 0.0 0.0 0.00 0.85 0.31 99 1005.0
20260507075552 48 287 0.0 0.9 0.00 0.85 0.31 99 1004.9
20260507075048 48 282 0.0 0.9 0.00 0.85 0.31 99 1004.9
20260507074548 48 276 0.0 0.0 0.00 0.85 0.31 99 1005.0
20260507074047 48 263 0.0 0.0 0.00 0.85 0.31 99 1004.8
20260507073546 48 278 0.0 0.0 0.00 0.85 0.31 99 1004.7
20260507073046 48 291 0.0 0.0 0.00 0.85 0.31 99 1004.8
20260507072546 49 273 0.0 0.0 0.00 0.85 0.31 99 1004.9
20260507072046 49 313 0.0 0.0 0.00 0.85 0.31 99 1004.6
20260507071547 49 256 0.0 0.0 0.00 0.85 0.31 99 1004.5
20260507071046 49 268 0.0 0.0 0.00 0.85 0.31 99 1004.5